GFSFLT2_sfc_wetblb_012.txt.gz
Wetbulb
29.81 30.84 28.99 29.83 32.25 32.76 33.84 34.18 34.44 38.65 39.05 39.38 39.25 39.63 40.07 40.38 40.67 41.10 41.31 41.81 42.16 42.78 43.65 43.97 44.31 44.59 44.69
28.62 29.21 28.49 30.14 31.07 31.20 33.84 34.64 32.89 36.28 38.01 38.38 38.63 38.74 39.00 39.20 39.59 39.87 40.08 40.40 40.77 41.22 42.03 42.32 42.68 42.96 43.56
26.52 28.82 28.98 30.26 31.25 31.10 30.29 29.97 32.03 35.21 36.52 36.97 37.54 37.88 38.09 38.62 38.96 39.12 38.79 38.95 39.21 39.41 39.56 40.20 40.88 41.45 42.12
26.55 27.06 28.55 30.84 28.37 26.57 26.00 27.87 28.02 31.29 33.16 35.03 35.75 36.08 36.83 36.94 36.85 36.68 36.71 37.24 37.96 38.63 38.89 39.06 39.27 39.96 40.78
27.33 27.58 26.67 25.86 25.21 25.31 25.15 26.21 27.22 28.89 27.60 28.13 28.77 29.12 29.66 33.20 33.79 34.97 35.75 37.28 37.84 38.45 38.98 39.48 39.48 39.82 40.39
28.81 24.75 25.46 24.56 24.66 24.81 24.74 24.90 23.61 28.51 24.47 25.67 27.65 26.89 28.49 29.51 33.99 35.53 36.04 36.85 37.56 37.82 38.43 39.14 39.43 39.89 40.42
25.88 25.12 24.29 25.21 25.23 25.56 27.21 26.74 24.14 26.41 25.78 23.63 27.17 25.95 28.04 29.55 33.27 34.84 35.61 35.98 36.84 37.68 38.29 38.48 38.93 39.30 39.89
27.57 27.07 27.16 29.65 30.35 29.62 27.03 25.75 26.13 26.82 26.72 22.51 26.12 24.71 26.72 27.89 32.88 33.75 34.65 35.87 36.78 37.40 37.53 37.81 38.34 38.67 39.20
32.47 33.26 33.71 33.28 32.17 28.47 24.54 23.10 22.42 23.98 26.30 24.20 23.98 23.80 24.96 25.40 27.20 32.67 33.91 34.94 34.63 35.64 36.25 36.95 37.46 38.37 37.64
27.25 27.26 28.44 26.74 31.13 26.97 24.97 21.84 21.74 20.94 24.58 23.47 23.15 23.83 20.72 24.89 24.88 26.78 26.84 31.43 33.12 34.12 35.18 35.79 36.30 34.36 34.88
24.28 24.54 24.98 25.02 25.30 25.72 25.72 24.51 22.93 21.68 25.71 25.92 24.02 23.48 22.99 21.37 23.94 25.87 26.50 27.07 27.40 28.78 32.68 34.38 35.60 35.77 33.48
23.13 22.87 23.00 23.02 23.96 24.66 25.08 24.71 25.53 25.27 26.79 27.20 24.55 23.82 22.68 21.52 20.96 25.02 26.16 27.10 27.42 27.70 28.90 32.38 34.81 36.24 37.36
22.72 22.31 22.58 23.47 23.83 23.38 23.98 24.60 24.91 25.95 27.21 26.42 25.51 25.39 24.85 22.97 22.64 23.76 25.00 26.51 28.76 27.57 29.25 29.83 30.84 32.67 31.42
22.11 23.18 24.18 23.39 22.18 23.02 22.51 22.64 22.05 22.50 25.87 26.52 25.61 26.03 24.58 24.54 24.87 24.25 25.74 24.64 28.56 29.12 29.81 30.84 31.75 32.39 32.15
22.48 22.47 22.28 22.22 22.22 22.76 22.43 22.79 21.39 20.58 21.69 24.21 25.77 25.65 25.65 25.18 23.86 25.10 26.04 27.05 29.02 28.57 28.55 28.68 30.10 31.54 32.39
21.82 21.49 21.15 20.71 20.96 22.45 22.95 20.91 20.44 20.87 21.33 22.60 23.11 23.24 24.50 26.02 30.48 26.67 27.36 27.13 27.74 28.62 28.77 27.45 28.62 31.17 32.60
21.14 20.75 20.93 21.31 21.73 20.13 20.80 21.04 20.47 20.84 21.32 22.78 24.01 23.75 21.12 20.23 26.37 33.03 27.59 27.56 27.82 27.64 28.20 28.70 28.39 30.64 31.87

GFSFLT2_sfc_wetblb_018.txt.gz
Wetbulb
25.02 26.75 26.09 26.70 28.83 29.43 30.54 30.15 31.22 36.75 37.49 38.01 38.37 38.80 39.27 39.67 40.06 40.54 41.15 41.68 42.22 42.96 44.10 44.37 44.82 45.13 45.49
24.48 25.25 26.11 27.21 27.14 26.64 30.07 32.30 31.58 34.02 36.46 37.24 37.67 37.93 38.25 38.67 39.21 39.26 39.46 39.92 40.42 40.90 41.31 41.88 42.63 43.20 44.03
24.89 25.61 25.78 26.93 27.26 27.87 28.40 28.11 29.83 33.45 35.04 35.55 36.46 36.95 37.57 37.83 37.87 37.98 38.00 38.15 38.42 38.63 39.19 39.94 40.60 41.62 42.59
24.85 23.88 24.35 27.44 26.48 24.65 24.73 26.61 26.24 29.26 31.80 33.37 35.57 35.85 35.96 36.07 36.18 35.87 35.75 36.26 37.10 37.85 38.40 38.89 39.47 40.56 41.59
22.93 23.73 25.74 25.37 23.95 24.73 23.71 24.95 25.98 27.62 27.20 26.93 27.35 27.79 28.69 32.01 32.62 33.79 34.35 35.89 37.01 37.69 38.24 38.58 39.14 39.98 40.86
19.84 25.05 24.80 23.97 24.66 23.80 23.58 22.83 22.18 28.00 24.29 25.64 27.43 26.36 27.37 27.61 32.39 34.27 35.42 35.99 36.36 36.83 37.43 38.03 38.39 39.06 39.52
25.70 24.90 24.05 24.81 24.64 22.79 24.74 25.67 23.97 26.09 25.33 22.78 25.71 24.59 27.13 28.57 32.98 33.90 34.83 35.35 35.92 36.49 36.87 37.17 38.06 38.89 39.94
26.93 26.52 25.83 27.07 28.74 28.25 25.86 24.82 24.90 25.15 25.08 19.95 24.28 23.22 25.55 26.47 31.98 33.15 34.02 34.75 35.30 35.92 36.41 36.60 36.42 36.68 37.35
33.07 33.36 33.62 33.64 31.77 27.01 22.21 20.95 19.68 21.53 24.38 21.93 21.99 22.77 24.24 24.46 26.30 31.87 33.18 33.94 34.45 34.77 35.10 35.35 35.54 35.96 35.12
24.57 25.21 26.91 25.53 30.26 25.79 22.36 19.47 19.45 19.28 22.32 20.46 22.19 22.15 20.26 23.26 24.74 24.33 25.83 30.68 32.24 33.17 33.87 34.44 34.73 32.04 31.52
22.67 22.95 23.67 23.85 24.35 24.75 24.57 21.11 20.79 20.44 24.39 24.80 22.37 21.41 21.38 20.38 23.38 24.69 25.06 25.55 25.69 27.03 31.06 32.36 33.25 33.13 30.30
21.57 21.45 21.72 21.43 22.07 22.90 23.90 23.60 23.90 23.04 24.04 24.05 21.09 20.17 20.07 19.23 18.89 23.10 24.20 25.04 25.31 24.85 25.79 29.42 32.43 33.88 34.63
20.55 20.52 20.83 21.54 21.92 21.98 22.59 23.16 23.01 24.16 25.98 25.41 24.02 22.93 22.03 20.01 19.44 20.92 22.38 24.02 25.32 24.93 25.60 25.36 25.44 27.49 28.06
20.34 21.16 21.98 21.08 20.71 21.79 20.81 21.30 20.99 21.01 24.35 25.65 25.29 24.54 22.05 22.12 22.01 21.04 22.50 21.41 23.83 24.70 25.03 25.68 27.00 28.35 29.39
19.95 20.45 20.48 20.39 20.24 20.85 20.42 20.45 19.79 19.53 19.80 22.63 24.75 25.30 24.79 23.65 21.26 22.19 22.49 22.78 24.17 24.40 25.45 25.46 26.90 28.19 28.85
19.50 19.01 18.64 18.30 18.53 20.27 21.39 19.78 18.38 19.03 19.73 21.05 21.94 22.04 23.26 25.46 28.19 22.75 23.30 23.84 25.49 26.97 27.98 26.49 26.68 29.22 29.84
18.07 17.62 17.76 18.02 20.08 18.12 18.53 19.13 18.66 19.16 19.74 21.45 22.74 23.11 19.92 18.31 25.48 31.84 27.46 28.39 28.36 27.94 28.58 27.92 26.87 28.14 29.87

GFSFLT2_sfc_wetblb_021.txt.gz
Wetbulb
24.33 25.64 25.34 26.31 28.20 28.37 29.54 28.42 29.57 35.81 37.18 37.84 38.21 38.92 39.34 39.69 40.19 40.66 40.97 41.55 42.19 42.76 43.69 44.14 44.71 45.03 45.28
23.31 24.64 24.90 26.52 26.29 25.70 29.00 31.36 30.14 33.97 36.21 37.01 37.65 37.88 38.23 38.71 38.94 39.38 39.64 39.82 40.19 40.76 41.29 41.97 42.43 42.92 43.73
23.81 24.92 25.06 25.26 25.35 26.49 26.86 27.67 29.27 32.91 34.88 35.40 36.27 36.88 37.44 37.98 38.19 37.98 38.03 38.32 38.56 38.74 39.16 39.82 40.53 41.42 42.24
24.29 23.10 23.76 25.67 25.59 25.10 24.36 25.92 25.67 28.57 31.31 33.19 34.93 35.35 35.74 36.23 36.30 36.10 36.07 36.58 37.36 37.82 38.11 38.52 38.95 39.85 41.03
23.05 21.25 23.20 25.20 24.73 25.42 23.61 24.62 25.20 26.59 26.55 26.66 26.26 27.51 28.23 31.96 32.55 33.76 34.31 35.52 36.69 37.65 38.37 38.79 38.63 39.19 40.05
17.37 23.47 24.53 24.43 24.13 23.85 23.56 22.43 21.91 26.18 24.19 25.23 26.86 25.88 26.81 27.17 32.07 34.07 35.41 36.27 36.65 37.04 37.38 37.94 38.08 38.55 39.35
25.80 24.29 24.44 25.34 25.24 23.35 23.71 24.22 24.33 25.78 25.02 22.59 25.29 23.81 26.10 27.54 32.56 33.76 34.76 35.42 36.02 36.41 36.77 37.31 37.51 37.93 38.46
26.44 26.69 26.77 27.22 27.19 27.62 26.83 24.39 24.87 25.23 24.47 19.63 24.07 23.02 25.29 25.75 31.47 33.13 34.07 34.81 35.42 36.02 36.56 36.77 36.79 36.90 37.25
33.31 33.40 33.59 33.44 31.87 26.64 21.47 20.63 19.60 21.45 24.16 21.72 21.68 22.14 24.07 24.46 26.00 31.68 33.25 34.07 34.69 35.09 35.44 35.51 35.62 35.83 34.89
24.17 24.60 26.54 24.88 29.84 25.24 20.04 17.36 19.82 19.14 22.11 20.25 21.79 22.16 19.24 22.91 23.94 24.05 25.44 30.27 32.10 33.11 33.86 34.41 34.64 31.77 31.05
21.78 22.14 22.95 23.05 23.45 23.89 24.03 17.84 20.16 20.01 24.05 24.69 21.07 21.42 21.23 19.60 22.52 24.02 24.33 24.85 24.96 26.43 30.48 31.84 32.59 32.50 29.45
20.90 20.77 21.00 20.78 21.34 22.06 23.13 22.68 23.01 22.35 23.56 23.90 20.98 18.72 19.37 18.50 18.13 22.52 23.63 24.39 24.62 24.37 24.97 28.41 31.35 32.82 34.02
19.87 19.96 19.86 20.29 20.53 20.81 21.61 22.39 22.14 22.78 24.79 24.35 23.57 22.99 22.32 19.93 19.34 20.48 21.92 23.40 24.58 23.85 24.26 24.16 24.36 25.38 24.06
19.67 20.62 21.40 20.26 19.90 20.77 19.60 20.23 19.93 20.21 22.91 23.17 23.24 22.84 21.44 21.87 21.85 20.65 22.07 20.95 23.48 24.40 24.60 24.84 25.45 26.20 26.77
18.79 19.17 19.93 19.71 19.34 19.82 19.24 19.25 18.51 18.80 18.87 21.60 23.15 23.84 23.64 23.04 20.96 21.99 22.41 22.50 23.85 23.82 23.77 23.69 25.45 26.40 26.61
17.71 17.64 17.41 17.32 17.40 19.24 20.46 18.50 17.27 17.90 18.52 20.09 20.71 20.93 22.36 24.79 28.06 23.05 23.65 23.65 24.86 25.77 26.27 24.83 25.05 28.01 28.60
16.34 16.03 16.81 16.91 19.18 17.00 17.33 17.84 17.67 18.40 18.94 19.91 20.95 21.62 18.92 17.31 24.48 30.78 26.26 27.55 28.03 27.82 28.31 28.14 26.88 27.97 29.61

GFSFLT2_sfc_wetblb_027.txt.gz
Wetbulb
32.50 32.80 32.37 33.35 34.35 35.46 35.20 35.10 35.20 36.12 37.27 37.74 38.27 39.08 39.81 40.41 40.77 41.23 41.68 42.30 42.82 43.50 44.17 44.76 45.08 45.12 45.72
30.15 30.70 31.06 33.43 33.75 33.27 33.43 34.26 34.57 34.93 36.35 37.14 37.92 38.08 38.47 38.87 39.46 40.02 40.44 40.77 41.05 41.56 42.24 42.87 43.27 43.81 44.59
29.39 30.72 31.54 32.32 32.50 32.64 32.50 33.41 33.20 33.92 34.99 35.39 36.08 36.60 37.50 38.24 38.97 39.16 39.17 39.33 39.60 39.86 40.38 40.83 41.49 42.21 42.95
28.74 29.68 30.43 32.17 31.30 29.98 30.11 32.47 31.37 32.28 33.46 33.85 35.06 35.61 36.35 36.70 36.94 36.78 36.70 37.08 37.85 38.52 38.94 39.20 39.40 40.06 41.15
29.27 29.61 29.36 29.99 29.75 31.25 29.26 29.88 30.67 31.61 31.09 31.88 31.68 32.06 32.85 34.01 33.94 34.36 34.85 35.69 36.86 38.08 38.88 39.35 39.58 39.92 40.57
28.33 28.22 29.47 29.96 30.53 29.00 28.34 27.26 25.14 32.61 29.82 29.62 31.88 30.30 31.61 32.36 33.53 34.37 35.38 36.54 37.15 37.60 38.18 38.69 38.92 39.12 39.32
30.13 29.74 28.98 30.22 30.24 28.39 28.65 27.91 26.43 30.03 29.53 27.34 30.32 29.00 31.36 31.73 33.39 34.10 34.99 35.79 36.48 37.13 37.57 38.00 38.41 38.57 38.68
31.96 31.52 31.60 31.63 31.11 30.48 29.53 28.79 28.66 29.30 29.76 23.73 29.23 28.51 30.76 31.30 32.85 33.46 34.18 35.10 35.63 36.30 36.88 37.18 37.39 37.73 37.92
32.69 32.67 32.69 32.64 32.08 29.46 26.81 25.40 23.49 25.41 28.51 25.48 26.77 27.20 28.46 29.17 30.94 32.57 33.37 34.23 34.86 35.36 35.63 35.76 35.90 36.42 35.62
28.19 28.00 28.45 27.68 29.39 28.35 26.80 23.38 22.77 22.05 27.66 24.40 25.96 25.67 23.32 29.34 30.52 30.90 30.07 31.54 32.43 33.09 33.72 34.39 34.61 32.97 32.34
25.43 25.58 26.14 26.41 26.88 27.17 26.73 25.17 22.32 22.42 26.78 25.80 25.25 24.91 23.52 23.12 26.79 28.74 29.03 29.23 29.53 30.10 31.31 31.93 32.44 32.31 30.34
23.31 23.75 24.42 24.80 25.60 25.87 25.70 25.64 25.94 24.46 26.33 25.96 22.82 22.89 22.25 21.44 21.64 26.98 28.67 29.57 29.81 29.10 30.01 30.78 31.75 32.74 33.51
22.18 23.28 24.11 24.45 24.35 24.38 25.24 25.50 24.83 25.14 26.15 25.64 24.57 24.33 23.42 21.43 21.63 23.27 24.11 26.93 28.46 28.12 29.26 28.94 28.99 29.76 29.09
21.88 22.70 23.30 23.32 23.22 24.41 22.92 23.45 22.57 24.12 27.90 26.62 25.61 24.62 22.92 23.91 23.37 22.35 25.11 23.12 27.69 28.25 28.66 28.79 29.48 30.34 28.85
20.58 20.47 20.83 21.60 21.87 22.99 22.16 22.06 21.11 22.84 23.98 26.03 27.56 26.62 25.87 24.25 21.57 23.62 24.07 25.20 27.33 27.98 27.91 26.80 28.84 30.24 30.54
19.78 19.42 18.91 19.08 19.56 21.30 23.18 22.16 21.11 21.84 22.87 24.67 25.41 24.47 25.10 26.95 27.82 24.18 26.63 27.32 28.89 29.11 28.99 26.63 27.17 31.21 32.63
18.35 18.06 18.26 18.21 20.01 19.93 20.79 20.80 21.33 23.13 24.77 25.62 24.06 23.13 21.39 19.93 26.59 30.91 27.24 28.66 28.68 27.77 29.14 28.67 27.37 29.53 31.92

GFSFLT2_sfc_wetblb_030.txt.gz
Wetbulb
32.41 32.93 32.61 34.43 34.79 36.76 38.49 38.05 38.23 38.61 38.90 38.90 38.86 39.18 39.96 40.70 41.23 41.77 42.18 42.72 43.44 44.20 44.74 45.26 45.79 45.86 46.20
31.36 31.54 31.74 33.22 33.54 33.84 34.91 36.13 36.78 37.65 38.46 38.28 38.44 38.72 39.20 39.57 39.88 40.26 40.57 41.23 41.77 42.31 42.99 43.33 43.67 44.32 44.99
31.77 33.01 32.72 32.94 32.49 33.63 34.19 35.56 36.43 36.76 37.62 37.34 37.36 37.87 38.20 38.71 39.25 39.61 39.45 39.87 40.34 40.49 40.89 41.39 42.03 42.79 43.51
31.27 32.09 32.48 33.22 33.09 31.82 32.33 34.88 33.92 35.06 35.92 36.44 36.73 36.59 37.22 37.82 37.83 37.59 37.68 38.04 38.51 38.91 39.21 39.42 39.76 40.59 41.51
31.54 31.78 32.21 32.21 31.51 33.06 31.44 32.53 33.05 34.36 33.67 34.70 34.95 35.08 35.59 36.62 36.39 36.44 36.70 36.89 37.39 38.15 38.89 39.49 39.76 40.20 40.81
32.32 30.23 30.53 31.72 33.08 31.66 30.87 29.26 27.23 34.06 32.50 32.08 34.68 33.48 34.69 35.40 36.70 36.72 36.78 37.18 37.51 37.88 38.32 38.94 39.24 39.58 39.97
31.12 31.54 31.44 32.45 31.89 30.58 30.01 28.91 28.14 31.55 32.01 29.19 32.94 32.08 34.63 35.48 36.52 36.41 36.53 36.69 36.84 37.16 37.68 38.20 38.69 39.08 39.19
33.51 33.26 33.25 33.20 32.79 32.10 31.05 30.56 31.26 32.16 32.98 27.79 31.88 30.97 33.68 35.02 36.03 36.10 36.09 36.21 36.34 36.69 37.14 37.48 37.68 37.98 38.23
32.76 32.94 33.22 33.33 33.09 31.33 28.27 27.86 26.38 28.40 31.83 29.11 29.96 30.16 31.63 33.00 34.39 35.13 35.20 35.18 35.41 35.99 36.35 36.38 36.47 36.84 36.10
31.15 31.13 31.37 30.72 30.52 30.19 29.64 26.21 25.30 24.46 31.39 27.54 28.23 28.09 25.50 31.23 32.50 33.31 33.37 34.47 34.57 34.81 34.99 35.07 35.19 33.65 33.15
28.78 28.78 29.36 29.96 30.29 30.71 30.33 28.46 24.92 24.46 29.89 29.16 27.56 27.17 26.53 26.03 28.95 31.67 32.18 32.74 33.30 33.79 34.27 34.26 34.19 33.66 31.24
26.43 27.06 28.04 28.90 29.89 30.07 29.52 29.18 29.23 27.71 29.65 29.50 25.96 25.60 24.97 24.06 23.85 29.19 31.41 32.37 32.29 31.28 32.74 33.30 33.75 34.13 34.44
25.73 27.05 28.44 28.85 28.55 28.09 29.75 29.57 28.46 28.50 28.90 28.69 26.36 25.04 24.64 22.76 23.56 25.82 26.98 29.21 30.88 30.45 30.98 31.58 31.70 31.99 29.85
26.10 26.82 27.46 27.20 26.87 28.04 26.97 27.45 26.50 27.30 31.87 31.79 29.93 27.81 24.12 24.91 25.11 24.21 26.33 24.60 29.34 30.07 30.70 31.26 31.67 31.57 30.97
25.14 24.70 24.63 25.30 25.70 27.13 26.38 25.46 23.56 25.01 27.66 30.67 32.09 30.82 29.01 26.99 24.28 25.53 25.57 26.85 29.04 29.20 29.29 28.41 30.27 31.59 31.75
24.33 24.08 23.35 23.32 23.52 24.83 25.36 24.95 23.91 25.09 26.22 28.26 27.91 26.80 28.24 29.61 30.83 27.11 28.57 28.35 30.10 30.73 30.53 28.50 28.63 31.63 33.06
23.38 23.11 22.86 22.28 22.32 23.13 24.09 24.36 24.34 26.38 27.40 28.32 27.55 27.03 24.73 23.14 29.61 32.88 28.68 29.14 29.35 29.06 30.22 29.85 29.05 30.84 32.74

GFSFLT2_sfc_wetblb_036.txt.gz
Wetbulb
33.65 34.17 33.92 34.38 36.17 36.38 36.56 36.26 36.44 39.95 40.90 41.13 41.19 41.50 41.68 41.74 41.92 42.12 42.33 42.97 43.65 44.32 45.20 45.74 46.05 46.39 46.60
32.42 31.97 32.29 33.61 34.80 34.36 35.45 36.33 35.67 37.76 39.50 40.20 40.76 41.05 40.98 40.68 40.49 40.74 41.19 41.68 42.04 42.59 43.24 43.77 44.28 44.88 45.61
32.10 32.40 33.13 33.94 33.53 33.95 33.91 33.97 34.99 37.69 39.48 39.14 39.15 39.45 39.71 40.03 40.25 40.45 40.39 40.60 40.95 41.35 41.68 42.00 42.30 42.90 43.77
32.47 32.91 33.36 33.45 32.60 30.58 29.77 31.12 30.22 34.15 35.66 36.56 37.89 37.92 38.13 38.82 38.91 38.78 38.78 39.10 39.63 40.09 40.31 40.39 40.54 41.17 42.02
31.07 31.39 31.08 29.41 28.08 28.79 27.89 27.97 28.41 29.62 28.11 28.18 28.29 29.03 30.78 35.32 36.01 36.71 37.35 38.56 39.20 39.66 40.08 40.40 40.46 40.50 41.07
29.55 27.43 27.02 26.11 26.26 26.85 26.16 23.19 21.07 27.49 25.55 27.40 27.39 28.17 28.36 29.12 35.48 37.40 38.25 38.70 38.99 39.37 39.68 40.07 39.90 39.99 40.27
27.79 26.29 25.58 26.71 26.22 23.31 23.99 21.91 23.54 26.50 25.77 25.86 26.38 26.67 28.14 31.92 36.00 37.00 37.79 38.27 38.57 38.83 39.05 39.29 39.46 39.59 39.48
28.49 27.68 27.44 27.98 27.70 26.05 25.74 25.03 26.08 26.23 26.00 22.74 24.86 26.08 28.12 27.68 35.08 36.24 36.64 37.36 37.97 38.19 38.49 38.65 38.70 38.61 38.75
33.50 33.67 33.73 33.85 32.64 26.81 21.17 18.87 20.38 22.95 25.69 23.65 24.06 24.11 25.72 27.31 27.88 34.44 35.77 36.20 36.25 36.75 37.52 37.96 38.19 38.31 36.89
25.44 27.01 28.76 27.20 32.32 26.51 21.79 13.49 14.59 16.80 24.40 20.55 22.89 23.55 21.00 25.77 25.51 27.19 27.74 32.51 34.41 34.90 35.51 36.03 36.51 34.11 33.10
23.36 22.64 22.88 23.31 23.91 24.59 25.39 17.40 11.83 19.35 26.65 27.54 16.84 24.82 24.51 23.00 25.40 25.44 26.07 25.75 26.47 28.52 32.06 33.20 34.09 34.03 31.38
21.23 21.11 20.73 20.81 22.28 23.56 26.34 24.25 26.87 26.63 25.13 27.74 24.85 23.44 23.17 22.22 21.99 24.86 25.21 26.01 25.91 25.98 26.80 29.74 32.38 33.67 34.47
21.36 19.74 19.44 19.70 19.27 19.37 22.30 26.45 28.96 28.87 29.34 23.45 25.57 25.86 25.33 23.19 22.87 23.72 25.38 26.30 27.10 25.61 24.45 26.24 26.04 26.87 26.16
20.90 22.47 22.85 17.95 19.13 20.32 18.73 26.24 25.48 25.78 28.71 24.06 22.68 24.12 24.86 25.91 26.07 24.86 26.32 24.88 26.83 26.73 26.80 26.76 27.22 27.64 27.52
21.59 23.02 24.43 24.45 24.40 25.41 24.75 24.27 22.76 22.62 23.33 26.24 28.26 26.81 28.53 28.00 25.93 25.98 25.44 25.22 26.47 26.51 26.85 26.53 27.54 28.07 28.72
24.01 23.10 22.70 22.95 22.92 23.73 24.30 23.02 21.55 22.30 23.21 24.90 25.51 25.57 26.54 27.64 30.93 26.33 26.35 26.54 27.50 27.90 27.60 26.44 26.60 28.94 29.96
23.77 23.64 23.61 23.15 23.10 22.19 21.80 21.68 21.25 22.20 23.40 24.85 24.13 23.00 20.54 18.96 25.30 32.50 25.99 26.75 27.14 27.67 27.51 26.74 25.60 27.38 29.20

GFSFLT2_sfc_wetblb_042.txt.gz
Wetbulb
36.13 36.38 37.36 38.69 40.52 38.97 39.96 39.81 39.38 43.72 44.49 44.13 44.21 45.02 44.75 43.63 43.53 43.70 43.92 43.96 43.84 44.28 44.83 45.63 46.18 46.47 46.95
33.48 33.11 33.72 36.27 36.17 36.09 37.64 38.64 38.05 39.48 42.12 43.13 42.52 42.13 42.27 42.68 42.45 41.75 41.71 42.08 42.42 42.85 43.20 43.79 44.28 44.78 45.46
32.90 33.18 32.75 34.09 33.73 34.21 34.45 35.88 36.89 38.94 40.24 40.65 41.20 41.78 40.81 40.34 40.49 40.48 40.28 40.61 40.68 40.84 41.17 41.68 42.25 42.90 43.69
33.56 32.91 33.58 33.44 34.11 33.22 32.15 33.39 32.62 34.47 36.03 37.02 37.31 37.94 38.63 38.54 38.15 38.14 38.16 38.53 39.07 39.51 39.96 40.31 40.68 41.38 42.17
32.14 32.39 32.26 31.49 30.98 30.86 30.19 28.52 27.92 28.35 28.48 27.98 27.81 27.60 29.16 33.59 34.65 36.06 36.71 37.25 38.34 39.44 40.32 40.84 41.04 41.26 41.60
31.32 29.16 28.61 28.07 26.60 26.12 25.06 23.28 21.68 26.66 25.65 25.63 27.40 26.93 27.07 27.60 33.68 35.74 36.92 38.03 38.54 39.04 39.70 40.29 40.42 40.65 41.05
28.40 25.79 25.02 25.44 23.84 21.24 22.81 21.30 22.55 25.01 24.98 23.26 25.25 24.97 26.17 28.89 34.46 35.62 36.62 37.47 38.11 38.55 38.91 39.44 39.60 39.64 39.96
28.16 27.49 26.84 27.12 26.53 25.06 24.81 23.55 24.93 25.46 25.16 18.22 22.92 23.69 25.20 25.64 33.23 34.88 35.97 36.81 37.42 37.23 37.46 37.82 37.97 38.37 38.88
32.55 33.10 33.63 34.00 31.94 25.58 19.79 16.01 18.87 21.89 24.23 22.61 22.80 23.13 24.26 24.11 25.74 32.68 34.56 34.54 35.07 35.75 36.04 36.25 36.14 36.48 35.05
24.25 25.21 26.15 24.79 30.75 25.49 20.67 11.34 11.96 13.98 22.68 19.75 21.60 22.90 17.94 23.33 24.75 25.37 25.27 31.02 33.30 34.18 34.63 34.85 34.97 30.88 28.34
21.51 20.56 21.20 21.86 23.55 24.31 23.91 14.24 7.46 11.89 23.53 25.54 19.58 25.53 24.38 20.06 24.02 24.50 24.70 25.53 25.44 27.22 31.41 33.14 33.93 33.05 30.02
20.17 20.17 19.95 18.75 20.25 21.19 24.50 21.30 20.50 20.18 22.63 20.77 23.80 23.59 23.31 22.33 21.88 24.11 24.36 24.48 24.41 25.05 25.70 29.19 32.66 34.03 34.51
20.07 17.87 17.13 17.27 15.99 16.87 19.24 22.33 20.71 22.50 26.73 22.80 26.08 26.09 25.04 22.89 22.46 23.73 24.41 23.21 24.81 24.95 25.64 24.62 24.75 25.51 24.05
19.72 21.70 22.26 15.97 17.99 23.94 22.89 19.82 17.88 21.14 23.58 22.72 25.73 26.79 24.33 24.56 24.14 22.92 23.34 22.39 22.87 26.41 26.03 26.30 26.62 26.54 26.33
21.16 23.49 23.64 23.68 22.12 22.21 23.67 17.80 19.49 18.68 20.19 20.81 22.87 23.21 25.55 24.79 22.76 23.92 23.84 24.34 25.34 26.09 25.51 24.99 26.48 27.95 27.96
23.59 23.18 22.32 21.92 20.52 22.16 22.68 21.42 20.36 19.62 19.09 19.75 16.43 20.12 22.32 24.38 28.61 24.19 24.24 24.20 25.07 25.43 25.18 24.35 24.78 27.21 28.51
12.59 13.26 15.32 17.03 21.53 19.00 19.46 20.20 19.96 19.12 18.87 18.56 12.72 13.80 15.74 14.76 21.15 29.73 22.98 23.52 23.00 23.19 24.19 23.81 23.28 25.17 26.91

GFSFLT2_sfc_wetblb_045.txt.gz
Wetbulb
36.89 37.00 38.12 39.78 40.58 39.84 41.54 41.19 41.29 45.30 46.20 46.21 46.21 45.65 45.01 45.83 45.62 45.13 45.37 45.34 45.69 45.67 45.67 46.02 46.50 46.93 47.16
34.13 33.82 34.31 37.12 37.02 37.51 38.97 39.81 38.80 40.04 42.29 43.21 43.69 44.32 43.83 43.84 43.70 43.69 43.59 42.84 42.82 43.21 43.89 44.38 44.70 45.31 45.86
33.39 33.72 33.72 34.04 33.10 33.34 34.12 35.69 38.08 39.27 41.21 42.20 42.36 42.38 42.33 42.68 41.81 41.16 41.18 41.34 41.24 41.58 41.68 42.02 42.51 43.17 43.89
33.73 33.35 34.19 34.01 34.35 33.72 32.95 34.72 34.28 35.59 36.68 37.65 38.04 38.29 38.64 39.20 39.31 38.87 38.79 39.21 39.65 40.24 40.33 40.45 40.75 41.44 42.26
32.47 32.61 32.53 32.06 31.56 31.79 31.17 29.38 27.98 27.93 28.25 27.71 27.53 27.62 28.46 33.36 34.35 35.81 36.79 37.67 38.25 38.85 39.72 40.68 41.08 41.34 41.89
30.95 29.10 26.73 26.58 25.88 26.68 24.72 21.16 21.45 26.03 24.79 25.00 27.09 26.78 26.93 27.16 33.04 35.27 36.34 37.41 38.37 39.29 39.70 40.06 40.61 40.73 40.94
26.51 25.49 24.40 24.72 23.03 21.19 22.21 20.64 22.86 24.89 24.75 22.97 24.44 24.13 25.63 27.99 33.64 35.50 36.63 37.51 38.17 38.68 39.02 39.38 39.75 40.02 40.09
26.58 26.17 26.03 26.35 25.95 24.21 24.30 23.03 24.80 25.26 25.13 17.86 22.48 23.27 24.82 25.52 32.62 34.42 35.72 36.82 37.50 38.17 38.06 37.93 38.06 38.30 38.70
32.25 32.68 33.14 33.44 31.06 26.04 26.59 16.17 19.08 21.59 23.76 22.35 22.50 22.88 24.05 23.78 25.60 33.10 34.45 34.49 34.97 35.60 36.30 36.54 36.83 37.10 35.00
23.86 24.43 24.93 23.95 29.20 25.48 20.73 10.57 12.03 13.23 22.20 19.40 21.33 22.00 17.56 22.81 24.27 24.82 25.05 30.46 33.07 33.89 34.78 35.06 35.40 32.59 28.44
21.13 20.38 21.14 22.40 23.79 24.35 23.37 13.19 6.80 10.60 23.10 21.75 11.44 21.05 23.70 19.45 23.59 24.47 24.10 25.27 25.14 27.05 30.94 32.56 33.47 33.34 27.33
19.68 19.97 19.51 18.06 19.60 20.29 23.00 20.47 19.46 18.74 21.67 17.13 17.36 14.15 16.98 21.68 21.18 23.65 23.68 24.05 23.24 24.96 25.21 28.68 31.72 33.37 34.60
19.49 17.13 16.38 16.45 15.83 16.77 19.01 22.16 20.41 21.60 25.84 16.58 17.81 19.06 24.76 23.10 22.50 22.71 24.15 23.53 24.06 24.72 24.75 23.97 23.90 24.04 24.21
19.16 21.23 21.86 15.94 18.36 19.47 21.71 22.17 15.13 20.51 22.70 20.54 16.96 18.60 22.38 23.86 24.20 22.91 23.34 21.27 20.87 21.68 23.71 25.80 26.26 26.21 25.93
19.76 23.24 23.67 23.73 23.18 18.38 19.24 16.98 17.04 18.63 19.73 20.25 22.41 21.37 20.99 20.59 20.69 22.03 22.34 22.83 24.19 24.16 23.78 23.23 25.29 26.38 26.47
23.66 23.41 22.56 22.25 19.30 18.62 17.03 18.12 18.97 18.91 18.90 19.19 13.66 13.48 16.26 20.35 26.42 22.58 23.75 24.06 24.82 24.07 23.87 23.48 23.57 25.93 26.91
9.85 10.33 10.73 10.58 19.82 17.32 17.71 17.60 17.83 18.54 18.74 18.27 8.12 13.37 14.44 13.55 19.49 28.85 22.64 22.81 22.33 22.52 23.45 22.82 22.25 24.18 25.71

GFSFLT2_sfc_wetblb_048.txt.gz
Wetbulb
37.07 37.07 38.08 39.86 39.76 40.82 41.55 41.41 41.78 45.74 46.37 46.74 47.02 47.19 47.24 46.74 46.28 47.05 46.21 46.39 46.95 47.28 48.01 47.42 47.28 47.12 47.38
34.20 34.26 34.32 36.83 37.71 38.04 39.53 40.08 39.49 41.23 43.04 43.95 44.36 44.61 45.21 45.52 44.86 45.02 44.83 44.94 44.73 44.16 44.12 44.38 45.09 45.62 45.92
33.97 34.46 34.35 34.88 34.00 34.38 35.46 35.65 37.49 39.07 41.00 42.43 43.57 44.15 43.73 43.73 43.87 43.86 41.88 41.64 41.72 41.77 41.93 42.48 42.84 43.34 43.93
34.06 33.64 34.26 34.51 35.01 34.04 33.39 35.09 34.86 36.55 37.26 38.01 38.74 38.93 39.11 39.30 39.47 39.18 39.26 39.46 39.80 40.38 40.59 40.72 40.85 41.24 42.06
32.80 32.78 32.48 32.05 31.13 30.45 28.58 27.51 27.25 27.63 27.72 27.78 27.50 27.29 28.37 32.83 33.66 35.38 36.28 37.09 37.98 38.86 39.52 40.00 40.44 41.22 41.72
24.71 27.27 25.41 24.92 24.65 25.18 23.83 20.72 20.10 25.27 24.41 24.83 26.35 26.07 26.74 26.66 32.55 34.99 36.23 36.98 37.73 38.44 39.31 40.36 40.42 40.40 41.03
25.78 24.78 24.06 24.26 22.17 19.82 21.09 19.73 22.18 24.48 24.48 22.66 24.04 23.43 25.03 27.26 32.66 34.76 36.19 37.22 37.96 38.61 39.14 39.44 39.55 39.73 40.02
26.13 25.67 25.55 25.98 25.39 23.63 24.05 22.62 24.64 25.19 24.63 16.66 22.28 22.97 24.60 25.35 31.63 33.64 35.22 36.60 37.34 38.05 38.40 39.02 38.41 38.51 38.86
31.93 32.13 32.41 32.31 30.29 25.27 19.58 16.04 18.62 21.20 23.23 22.12 22.04 22.63 24.02 23.86 25.55 32.97 33.50 34.58 35.49 36.03 36.30 36.79 37.12 37.37 35.81
23.12 23.31 23.98 23.54 28.95 25.46 20.00 10.30 11.12 12.66 21.59 18.86 20.68 21.65 17.73 22.98 23.99 24.98 25.32 30.55 32.66 33.46 34.30 35.11 35.39 31.44 29.53
20.32 19.95 21.46 23.00 23.54 23.87 22.80 11.73 5.99 9.27 22.39 20.06 11.36 16.83 16.45 17.94 23.51 24.52 24.41 24.90 24.94 26.78 31.22 32.53 33.42 33.12 27.38
19.29 19.53 18.94 17.58 18.97 19.44 22.35 19.98 19.00 17.98 21.35 16.35 11.61 12.37 8.82 18.58 19.83 23.16 23.38 24.39 23.38 24.75 24.35 28.24 31.54 32.21 33.73
19.23 16.74 16.06 16.47 14.84 15.68 18.34 21.83 20.20 21.29 25.36 15.92 14.55 9.93 16.71 20.15 21.07 21.90 23.37 22.72 24.65 23.93 24.42 23.28 23.21 23.06 24.13
18.64 20.93 21.45 15.32 23.08 21.95 15.03 18.60 14.04 18.24 22.15 18.83 15.63 14.85 20.93 21.62 21.64 21.63 22.30 20.19 19.41 20.13 20.31 22.41 25.09 25.81 25.69
18.73 21.31 23.95 23.92 23.35 18.17 16.67 13.81 19.50 19.56 18.81 19.94 22.17 20.25 19.08 18.85 18.75 20.09 20.51 21.17 22.64 23.02 23.47 23.59 24.75 25.19 25.87
15.70 15.93 17.44 17.53 17.39 16.80 14.03 14.59 17.17 17.64 17.11 17.43 12.79 12.83 14.68 18.90 24.72 19.32 20.39 21.15 23.63 24.03 23.73 22.74 23.22 25.72 26.52
8.33 8.58 8.87 8.34 17.81 15.46 15.62 14.93 15.29 15.80 16.91 14.94 6.49 13.79 13.15 12.59 18.90 28.48 20.67 21.49 22.01 22.10 22.84 22.24 21.72 23.94 25.56

GFSFLT2_sfc_wetblb_051.txt.gz
Wetbulb
39.03 38.61 39.83 40.62 41.19 42.17 42.14 41.51 42.27 46.54 47.11 46.87 46.61 46.14 46.35 46.84 46.50 46.48 46.97 47.98 47.68 48.59 48.42 49.01 48.74 48.16 47.91
37.18 37.04 37.38 38.21 38.34 38.74 39.45 40.11 39.87 42.06 44.30 44.52 44.50 44.61 44.80 45.02 45.11 45.63 45.42 45.63 45.89 46.44 46.15 45.75 46.09 46.19 46.81
36.83 36.94 37.27 36.21 36.06 36.47 36.86 37.68 39.11 40.13 41.27 41.73 42.34 42.94 43.99 43.95 44.09 44.32 44.40 43.48 42.43 42.82 42.97 43.15 43.44 44.17 44.64
35.95 35.83 36.20 35.80 36.16 35.10 35.22 36.00 35.82 37.08 37.14 37.81 38.91 38.50 38.76 39.51 39.68 38.96 38.71 39.64 40.57 41.21 41.28 41.25 41.30 41.84 42.38
34.95 35.48 34.95 34.60 33.04 33.29 33.39 32.99 33.91 32.95 33.32 34.54 34.72 35.23 35.76 35.33 34.94 35.31 36.06 37.09 37.87 38.60 39.24 39.97 40.37 40.86 41.59
32.26 31.31 30.76 30.87 31.52 31.08 30.81 30.34 29.77 32.35 31.34 31.86 33.35 32.85 33.34 33.60 33.35 34.79 35.91 36.85 37.26 37.92 38.82 39.75 40.37 41.15 41.35
30.93 30.66 30.17 30.73 30.28 29.81 29.47 29.31 29.11 31.52 30.28 28.86 31.22 30.08 32.93 32.14 32.94 34.65 36.09 37.25 37.96 38.49 39.10 39.84 40.30 40.30 40.35
31.80 31.53 31.69 32.10 31.45 30.89 30.54 30.04 30.25 31.01 30.42 26.67 30.02 29.57 32.14 32.59 31.69 33.43 35.11 36.29 37.43 38.27 38.92 39.50 39.47 39.85 39.54
31.48 31.37 31.66 31.67 32.24 31.50 29.51 28.03 26.19 27.31 29.10 27.51 28.70 28.18 30.25 30.80 32.14 32.80 33.34 34.24 35.29 37.03 38.31 38.60 38.33 38.19 38.49
27.61 27.01 26.71 27.59 29.48 29.60 29.11 26.37 25.60 25.52 27.93 27.07 27.16 27.42 27.21 30.66 31.04 31.92 32.29 31.53 33.02 34.47 35.26 35.78 36.16 36.34 35.88
25.61 26.16 27.14 27.82 28.21 28.45 27.61 26.77 25.55 25.83 28.24 28.82 26.48 27.02 27.02 26.75 29.08 30.52 30.70 30.82 31.33 31.85 32.45 33.39 34.10 34.33 33.48
24.54 25.01 25.81 26.67 27.41 27.43 26.98 27.59 27.07 26.37 28.36 26.45 25.79 25.44 25.30 23.77 24.20 28.96 29.96 30.55 30.62 29.97 30.86 31.15 32.12 33.47 34.77
24.08 24.96 25.93 26.57 25.03 26.05 26.93 27.10 27.12 27.19 27.95 26.80 25.41 25.65 24.01 23.32 23.70 24.84 25.32 28.77 29.50 29.11 29.89 29.77 29.81 30.34 29.18
24.46 25.30 26.13 25.82 25.95 26.80 25.02 25.26 23.92 25.12 27.10 27.56 25.57 23.78 23.55 24.48 24.09 23.18 26.01 24.41 28.24 28.83 28.62 28.48 29.04 29.75 29.56
24.32 24.45 24.81 25.40 25.24 26.03 24.53 23.83 22.09 22.90 23.67 25.76 26.46 26.50 25.42 24.03 21.79 23.63 24.14 25.27 27.32 27.63 26.67 26.36 28.24 29.20 29.59
23.23 22.84 22.93 23.07 22.64 22.93 23.28 22.21 21.26 21.68 21.80 23.12 23.13 22.18 23.19 25.38 26.89 24.24 25.62 25.24 26.72 27.21 27.31 25.02 26.05 29.73 30.36
20.56 20.67 20.10 19.10 20.32 20.51 20.68 20.20 19.87 20.52 21.29 22.27 21.33 19.55 18.43 18.33 25.55 28.89 25.05 26.18 26.34 25.92 26.93 26.79 26.40 28.22 29.43

GFSFLT2_sfc_wetblb_054.txt.gz
Wetbulb
42.60 41.42 42.51 42.65 43.52 43.87 44.59 43.70 43.56 44.98 46.71 46.72 46.63 46.58 46.60 46.86 46.85 46.56 46.48 46.86 47.73 48.40 49.00 48.95 49.20 48.96 48.63
41.20 41.62 40.31 41.40 41.02 40.92 40.42 42.78 44.08 42.40 44.21 44.56 44.92 45.00 45.04 44.88 44.96 45.15 45.17 45.43 45.92 46.33 46.19 46.05 46.53 46.93 47.55
40.05 40.85 40.01 38.01 37.83 38.89 38.79 39.19 40.75 40.13 41.18 41.63 41.72 42.02 42.62 43.83 44.16 44.21 44.38 44.76 43.91 43.34 43.59 44.04 44.59 45.05 45.60
38.98 39.16 38.93 37.72 37.30 37.32 39.87 40.83 39.62 39.31 38.45 36.95 37.36 37.69 38.46 39.46 39.83 38.76 38.53 39.42 40.86 41.63 42.14 42.18 42.21 42.50 43.02
38.09 38.38 38.28 38.16 36.24 36.53 35.71 36.35 37.89 36.27 36.34 37.63 36.94 37.84 38.44 37.38 36.99 36.60 37.06 37.84 38.66 39.61 40.30 40.40 40.40 40.91 41.43
37.26 35.89 35.51 34.82 35.42 34.09 33.50 32.62 32.03 36.04 33.81 34.15 36.14 34.79 35.99 36.30 34.85 34.78 35.89 36.84 37.34 37.87 38.19 38.94 39.99 40.57 40.99
33.86 33.66 33.01 33.55 33.01 32.20 32.33 32.03 31.53 33.66 32.27 31.28 34.32 33.01 35.86 35.24 34.05 34.79 35.83 36.80 37.69 38.23 38.71 39.35 39.91 40.55 41.02
34.86 34.60 34.60 35.11 34.21 33.22 32.69 32.08 32.82 33.60 32.59 28.96 33.79 32.68 35.37 36.04 32.93 33.71 34.95 36.14 37.12 37.84 38.72 39.34 39.72 40.17 40.29
31.50 31.33 31.44 31.54 32.61 33.13 31.25 29.62 28.84 30.26 32.28 29.85 32.01 31.22 33.54 34.03 35.16 32.87 33.93 34.36 35.28 36.33 38.10 38.85 39.06 39.50 39.35
30.77 29.83 29.27 30.05 29.97 31.18 31.25 28.38 28.38 29.13 31.01 29.00 29.82 29.80 29.72 34.72 34.20 34.72 35.09 34.13 33.26 34.42 36.00 36.54 37.20 36.60 36.55
28.84 29.55 30.05 30.63 31.27 31.40 30.83 30.54 29.05 28.95 31.06 30.66 28.72 29.29 29.19 29.27 31.76 33.65 33.81 33.70 34.05 34.18 34.23 34.74 35.59 36.08 34.98
27.66 28.29 28.90 29.83 30.67 30.58 29.82 30.30 30.66 29.21 31.03 30.06 27.70 27.51 26.91 25.73 26.73 31.77 32.83 33.40 33.32 32.78 33.47 33.77 34.09 34.38 35.24
27.30 28.45 29.53 30.32 29.06 29.14 29.60 29.60 29.19 29.69 29.76 29.41 28.11 28.33 26.36 24.58 26.10 27.31 27.17 30.58 32.52 32.41 32.12 32.53 32.29 32.98 32.10
27.77 28.55 29.07 28.88 28.42 29.55 27.92 28.75 27.57 28.12 29.89 30.14 29.35 28.09 26.13 26.75 26.46 25.20 27.26 25.97 31.23 31.47 31.89 31.52 31.44 31.90 32.07
27.20 27.13 27.14 27.61 27.84 28.85 27.88 27.21 25.34 25.93 27.08 28.90 29.42 28.75 28.40 27.12 24.77 26.39 26.85 28.25 30.96 31.22 29.15 28.02 30.73 32.05 31.99
26.75 26.47 25.74 25.99 25.99 26.36 26.27 25.63 24.86 25.32 25.55 26.85 26.70 25.81 26.29 28.73 29.40 26.36 28.09 29.10 30.61 30.68 29.18 27.20 27.84 31.65 32.45
25.20 25.33 25.28 24.78 23.93 23.99 24.67 24.37 23.69 24.33 25.21 26.33 25.52 23.39 20.90 21.47 28.48 31.19 27.70 28.67 29.04 28.94 30.17 29.76 28.92 30.69 32.01

GFSFLT2_sfc_wetblb_057.txt.gz
Wetbulb
44.63 43.43 43.57 42.77 43.00 43.30 43.01 43.69 44.69 44.79 46.48 46.75 46.79 46.75 46.88 47.23 47.51 47.55 47.46 47.58 48.53 48.87 49.06 49.38 49.34 49.69 48.71
41.21 41.45 40.45 41.29 41.24 40.42 40.34 41.84 42.53 43.13 43.78 43.95 44.04 44.62 45.52 45.50 45.39 45.37 45.58 45.47 45.91 46.25 46.50 46.46 46.48 47.13 47.73
40.15 41.41 40.72 38.55 37.63 39.21 39.26 39.09 41.16 40.89 40.88 41.28 41.59 41.74 42.18 42.91 43.50 43.54 43.97 44.56 44.76 44.32 44.05 44.57 45.09 45.59 46.02
39.30 39.56 39.52 38.85 37.73 36.77 36.81 39.24 37.71 38.81 39.21 37.73 38.16 38.04 38.54 39.37 39.79 38.80 39.24 39.89 40.88 41.96 42.59 42.59 42.54 43.00 43.66
38.47 38.43 37.20 37.08 34.55 34.69 32.88 33.60 35.11 34.33 33.22 34.48 33.83 34.58 35.52 37.20 37.61 37.31 37.28 37.82 38.71 39.78 40.75 41.41 41.38 41.27 41.51
35.54 34.78 34.08 32.55 32.69 31.43 30.83 29.62 29.28 33.42 30.55 30.35 32.61 30.90 32.09 32.34 35.84 35.36 36.26 36.81 37.26 37.87 38.51 38.73 39.03 39.58 40.45
31.98 31.38 30.63 31.56 30.95 30.68 30.50 29.57 28.78 30.74 29.32 27.38 30.74 29.38 32.08 34.20 35.07 34.86 36.01 36.68 37.37 37.98 38.59 39.04 39.50 39.92 40.37
33.04 32.74 32.54 33.30 32.50 31.56 30.20 29.64 30.46 30.43 29.40 25.73 30.05 28.86 31.40 32.38 34.70 34.07 35.47 35.99 36.82 37.71 38.42 38.99 39.46 39.87 40.37
31.82 31.51 31.59 31.92 31.92 30.32 29.38 27.88 26.66 26.58 28.63 26.55 28.32 27.77 29.51 30.21 31.33 33.20 35.02 34.93 35.32 35.71 36.64 38.26 39.00 39.57 38.78
29.37 29.42 29.28 29.06 30.46 28.52 28.89 25.27 26.57 26.68 27.50 26.05 27.19 27.08 25.75 30.64 29.81 30.45 31.00 35.49 35.48 35.13 35.43 36.54 37.21 34.30 34.65
26.96 26.69 27.22 28.04 28.37 28.70 28.35 27.69 25.64 26.09 28.39 27.67 27.75 26.88 26.19 26.13 28.36 29.63 29.66 29.79 30.12 31.38 35.17 35.64 35.74 35.92 33.24
25.56 25.74 26.34 27.82 28.89 28.91 28.58 28.47 28.89 26.61 28.57 27.15 25.52 26.67 25.54 24.44 23.61 27.79 28.45 28.97 28.42 28.41 28.79 32.89 34.95 35.68 36.03
25.12 26.68 28.13 28.79 26.81 26.58 29.15 29.03 27.48 28.03 28.80 25.01 26.82 26.31 26.54 24.24 22.51 23.98 25.19 26.16 28.11 27.59 27.99 27.05 27.53 30.21 27.70
25.91 26.80 27.21 27.18 26.63 27.79 26.13 26.57 25.86 25.98 29.09 27.12 25.75 26.99 24.24 24.21 24.39 24.00 25.33 23.35 25.15 26.49 27.41 30.09 29.79 28.74 28.82
25.55 25.66 26.08 26.32 26.54 26.91 26.15 24.87 22.96 23.11 24.37 26.80 27.74 27.01 26.16 23.74 22.82 23.52 23.79 24.85 26.63 27.07 27.67 28.09 28.82 28.36 28.88
25.77 25.45 24.62 24.37 24.36 24.88 24.41 22.69 22.36 23.12 22.76 23.58 23.23 21.99 25.23 26.43 28.70 23.39 24.12 24.78 26.34 28.31 29.37 26.66 26.11 27.86 29.19
23.73 23.12 23.02 22.64 23.52 22.11 22.24 22.31 22.00 22.41 22.54 21.89 20.37 23.51 20.40 18.90 23.91 32.46 24.57 25.00 25.29 25.42 26.33 26.53 26.02 27.44 29.00